Hilo, HI

2:36 PM HST on September 28, 2016 (GMT -1000)
Hilo International

Weather History for PHTO - February, 2012

Change the Weather History Date:

Sunday, February 26, 2012

  Actual Average Record
Temperature  
Mean Temperature 71 °F 71 °F  
Max Temperature 75 °F 79 °F 86 °F (1963)
Min Temperature 67 °F 64 °F 58 °F (1991)
Degree Days  
Heating Degree Days 0 0  
Month to date heating degree days 0 0  
Since 1 July heating degree days 0 0  
Cooling Degree Days 6 6  
Month to date cooling degree days 174 156  
Year to date cooling degree days 402 354  
Growing Degree Days 20 (Base 50)    
Moisture  
Dew Point 64 °F    
Average Humidity 79    
Maximum Humidity 93    
Minimum Humidity 64    
Precipitation  
Precipitation 0.89 in 0.38 in 7.22 in (2002)
Month to date precipitation 10.36 8.80  
Year to date precipitation 12.43 18.06  
Snow  
Snow 0.00 in - - ()
Month to date snowfall 0.0  
Since 1 July snowfall 0.0  
Snow Depth 0.00 in    
Sea Level Pressure  
Sea Level Pressure 30.06 in    
Wind  
Wind Speed 6 mph (SW)    
Max Wind Speed 14 mph    
Max Gust Speed 17 mph    
Visibility 8 miles    
Events Rain    
T = Trace of Precipitation, MM = Missing Value Source: NWS Daily Summary

Daily Weather History Graph

Daily Weather History Graph

Search for Another Location

Airport or City:

Trip Planner

Search our weather history database for the weather conditions in past years. The results will help you decide how hot, cold, wet, or windy it might be!

Date:

Astronomy

Feb. 26, 2012 Rise Set
Actual Time 6:42 AM HST 6:24 PM HST
Civil Twilight 6:20 AM HST 6:46 PM HST
Nautical Twilight 5:54 AM HST 7:12 PM HST
Astronomical Twilight 5:28 AM HST 7:37 PM HST
Moon 9:30 AM HST (2/26) 10:41 PM HST (2/26)
Length of Visible Light 12h 26m
Length of Day
11h 42m
Waxing Crescent, 22% of the Moon is Illuminated
Feb 26
Waxing Crescent
Feb 29
First Quarter
Mar 7
Full
Mar 14
Last Quarter
Mar 22
New

Hourly Weather History & Observations

Time (HST) Temp. Dew Point Humidity Pressure Visibility Wind Dir Wind Speed Gust Speed Precip Events Conditions
12:53 AM 66.9 °F 64.0 °F 90% 30.05 in 9.0 mi WSW 9.2 mph - 0.08 in Rain Light Rain
1:53 AM 66.9 °F 64.0 °F 90% 30.04 in 6.0 mi SSW 5.8 mph - 0.04 in Rain Rain
2:28 AM 66.2 °F 64.4 °F 94% 30.04 in 2.5 mi WSW 6.9 mph - 0.12 in Rain Rain
2:35 AM 66.2 °F 64.4 °F 94% 30.04 in 9.0 mi WSW 6.9 mph - 0.14 in Rain Light Rain
2:53 AM 66.9 °F 64.9 °F 93% 30.04 in 3.0 mi SW 6.9 mph - 0.16 in Rain Rain
3:42 AM 68.0 °F 64.4 °F 88% 30.02 in 6.0 mi Calm Calm - 0.11 in Rain Light Rain
3:53 AM 68.0 °F 64.9 °F 90% 30.02 in 10.0 mi SW 4.6 mph - 0.12 in   Overcast
4:53 AM 68.0 °F 64.9 °F 90% 30.02 in 10.0 mi Calm Calm - 0.00 in   Overcast
5:18 AM 68.0 °F 64.4 °F 88% 30.03 in 10.0 mi WSW 6.9 mph - N/A   Overcast
5:53 AM 68.0 °F 64.9 °F 90% 30.04 in 10.0 mi Calm Calm - 0.01 in   Overcast
6:26 AM 68.0 °F 64.4 °F 88% 30.05 in 10.0 mi Calm Calm - N/A   Overcast
6:53 AM 68.0 °F 64.0 °F 87% 30.05 in 10.0 mi Calm Calm - N/A   Overcast
7:29 AM 68.0 °F 64.4 °F 88% 30.06 in 10.0 mi West 9.2 mph - N/A   Overcast
7:53 AM 68.0 °F 63.0 °F 84% 30.06 in 10.0 mi WSW 10.4 mph - N/A   Overcast
8:53 AM 69.1 °F 64.0 °F 84% 30.07 in 10.0 mi WSW 8.1 mph - N/A   Overcast
9:53 AM 72.0 °F 64.9 °F 78% 30.08 in 10.0 mi WSW 5.8 mph - 0.00 in   Overcast
10:12 AM 71.6 °F 64.4 °F 78% 30.09 in 3.0 mi East 9.2 mph - 0.00 in Rain Heavy Rain
10:14 AM 69.8 °F 64.4 °F 83% 30.09 in 1.8 mi East 9.2 mph - 0.01 in Rain Heavy Rain
10:32 AM 69.8 °F 64.4 °F 83% 30.08 in 2.5 mi Variable 6.9 mph - 0.23 in Rain Rain
10:41 AM 69.8 °F 64.4 °F 83% 30.08 in 1.2 mi West 10.4 mph - 0.27 in Rain Heavy Rain
10:53 AM 70.0 °F 64.9 °F 84% 30.07 in 6.0 mi West 4.6 mph - 0.34 in Rain Light Rain
11:04 AM 69.8 °F 66.2 °F 88% 30.08 in 10.0 mi West 6.9 mph - 0.00 in   Overcast
11:17 AM 69.8 °F 64.4 °F 83% 30.07 in 2.0 mi WNW 8.1 mph - 0.03 in Rain Rain
11:19 AM 69.8 °F 64.4 °F 83% 30.07 in 1.8 mi WNW 6.9 mph - 0.04 in Rain Rain
11:22 AM 69.8 °F 66.2 °F 88% 30.07 in 2.5 mi WNW 6.9 mph - 0.04 in Rain Heavy Rain
11:53 AM 70.0 °F 66.9 °F 90% 30.05 in 7.0 mi West 4.6 mph - 0.14 in Rain Light Rain
12:22 PM 71.6 °F 66.2 °F 83% 30.04 in 10.0 mi Calm Calm - 0.01 in   Overcast
12:53 PM 73.0 °F 64.9 °F 76% 30.03 in 10.0 mi East 11.5 mph - 0.01 in   Overcast
1:53 PM 73.9 °F 63.0 °F 68% 30.01 in 10.0 mi ESE 13.8 mph - 0.00 in   Overcast
2:53 PM 75.0 °F 63.0 °F 66% 30.01 in 10.0 mi SE 11.5 mph - N/A   Overcast
3:53 PM 73.9 °F 62.1 °F 66% 30.01 in 10.0 mi ESE 8.1 mph - N/A   Overcast
4:53 PM 73.9 °F 63.0 °F 68% 30.02 in 10.0 mi ESE 5.8 mph - N/A   Overcast
5:53 PM 73.0 °F 62.1 °F 68% 30.04 in 10.0 mi Calm Calm - N/A   Overcast
6:53 PM 70.0 °F 64.0 °F 81% 30.06 in 10.0 mi WSW 4.6 mph - N/A   Overcast
7:15 PM 69.8 °F 64.4 °F 83% 30.07 in 10.0 mi South 4.6 mph - N/A   Overcast
7:53 PM 66.9 °F 62.1 °F 84% 30.08 in 10.0 mi WSW 9.2 mph - 0.00 in   Overcast
8:53 PM 66.0 °F 61.0 °F 84% 30.10 in 7.0 mi Calm Calm - 0.06 in Rain Light Rain
9:53 PM 66.0 °F 61.0 °F 84% 30.11 in 10.0 mi WSW 5.8 mph - 0.00 in   Overcast
10:13 PM 66.2 °F 60.8 °F 83% 30.11 in 10.0 mi WSW 6.9 mph - N/A   Overcast
10:53 PM 66.9 °F 61.0 °F 81% 30.11 in 10.0 mi SSW 4.6 mph - 0.00 in   Mostly Cloudy
11:50 PM 66.2 °F 60.8 °F 83% 30.11 in 10.0 mi SW 4.6 mph - 0.00 in Rain Light Rain
11:53 PM 66.9 °F 61.0 °F 81% 30.11 in 10.0 mi SW 3.5 mph - 0.00 in Rain Light Rain